[[{"header":{"parameterUnit":"m.s-1","parameterCategory":1,"la1":30.2991,"la2":30.254,"lo1":-89.0895,"lo2":-89.0444,"dy":0.0017,"dx":0.0017,"nx":28,"ny":28,"refTime":"2024-05-20T21:00:00:Z","depth":0,"parameterNumber":2,"parameterNumberName":"U-component_of_WINDS"},"data":[0,0,0,0,0,0,0,0,0,0,0,0,0,0,0,0,0,0,0,0,0,0,0,0,0,0,0,0,0,0,0,0,0,0,0,0,0,0,0,0,0,0,0,0,0,0,0,0,0,0,0,0,0,0,0,0,0,0,-1.7057,-1.7058,0,-1.7132,-1.7133,-1.7134,-1.7135,-1.7135,-1.7134,-1.7133,-1.7211,-1.7214,-1.7217,0,0,0,0,0,0,0,0,0,0,0,0,0,-1.692,-1.6923,-1.7057,-1.7058,-1.7059,-1.7132,-1.7133,-1.7134,-1.7136,-1.7135,-1.7133,-1.7132,-1.721,-1.7214,-1.7217,0,0,0,0,0,0,0,0,0,0,0,0,0,-1.6986,-1.6923,-1.7057,-1.7069,-1.7071,-1.7132,-1.7133,-1.7134,-1.7136,-1.7134,-1.7133,-1.7132,-1.7209,-1.7213,-1.7218,-1.7273,0,0,-1.7231,-1.7233,0,0,0,0,0,0,0,0,-1.6982,-1.6991,-1.7066,-1.7068,-1.707,-1.7123,-1.7113,-1.7181,-1.7136,-1.7111,-1.7133,-1.7131,-1.7183,-1.719,-1.7207,-1.7277,-1.728,-1.7232,-1.7234,-1.7236,-1.7238,0,0,0,0,0,0,0,-1.6977,-1.6988,-1.7087,-1.7067,-1.707,-1.7071,-1.7079,-1.7126,-1.7154,-1.7113,-1.7114,-1.7122,-1.7184,-1.7202,-1.7209,-1.7281,-1.7232,-1.7236,-1.7238,-1.724,-1.7402,-1.7404,0,0,0,0,0,0,-1.697,-1.6984,-1.7085,-1.7089,-1.7022,-1.7075,-1.7084,-1.7107,-1.7154,-1.7159,-1.7123,-1.7122,-1.7196,-1.7203,-1.7211,-1.728,-1.7236,-1.724,-1.7243,-1.74,-1.7402,-1.7404,0,0,0,0,0,0,-1.6967,-1.6979,-1.7082,-1.7037,-1.705,-1.7079,-1.7105,-1.711,-1.7128,-1.7161,-1.7166,-1.7137,-1.7195,-1.7205,-1.7258,-1.7283,-1.7242,-1.7247,-1.7399,-1.7401,-1.7403,-1.7416,0,0,0,0,0,0,-1.6963,-1.6978,-1.6998,-1.7037,-1.7052,-1.7126,-1.7107,-1.7112,-1.7135,-1.7134,-1.7175,-1.7181,-1.7195,-1.7251,-1.7262,-1.7288,-1.725,-1.7396,-1.74,-1.7403,-1.7414,-1.7419,-1.7423,0,0,0,0,0,-1.6958,-1.6999,-1.6999,-1.7011,-1.7078,-1.7127,-1.7136,-1.715,-1.7137,-1.7159,-1.718,-1.7179,-1.7278,-1.7257,-1.7269,-1.7296,-1.7395,-1.7399,-1.7402,-1.7412,-1.7418,-1.7423,0,0,0,0,0,0,-1.6963,-1.7004,-1.7005,-1.7059,-1.709,-1.7127,-1.7154,-1.7156,-1.7191,-1.7189,-1.7206,-1.7216,-1.7268,-1.7288,-1.7263,-1.7353,-1.7335,-1.7342,-1.7338,-1.7344,-1.7349,-1.7343,-1.7254,0,0,0,0,0,-1.697,-1.7005,-1.704,-1.7085,-1.71,-1.7125,-1.7147,-1.7155,-1.7188,-1.7201,-1.7226,-1.7258,-1.7297,-1.7322,-1.7359,-1.7417,-1.7427,-1.7442,-1.7447,-1.7451,-1.7456,-1.749,-1.7497,-1.7416,-1.7416,-1.7416,0,0,-1.6985,-1.7012,-1.7034,-1.7087,-1.7111,-1.7149,-1.7135,-1.7175,-1.7204,-1.7207,-1.7258,-1.7278,-1.7316,-1.7372,-1.7398,-1.739,-1.7481,-1.7456,-1.7458,-1.7462,-1.7494,-1.7502,-1.7509,-1.7419,-1.7418,-1.7418,0,0,-1.7032,-1.7056,-1.7096,-1.7121,-1.7159,-1.7175,-1.7185,-1.7223,-1.7236,-1.7288,-1.7292,-1.7327,-1.7392,-1.7419,-1.7441,-1.7501,-1.7502,-1.7513,-1.7537,-1.757,-1.7576,-1.7582,-1.7604,-1.7612,-1.7518,-1.7518,-1.7518,0,-1.7047,-1.7102,-1.7117,-1.7157,-1.7181,-1.7186,-1.7228,-1.7252,-1.73,-1.7316,-1.7307,-1.739,-1.7416,-1.7479,-1.7493,-1.7511,-1.7524,-1.7508,-1.7574,-1.758,-1.7586,-1.7607,-1.7615,-1.7519,-1.7519,-1.7519,-1.7519,0,-1.7119,-1.7158,-1.7186,-1.7232,-1.7259,-1.73,-1.7322,-1.7348,-1.7355,-1.7373,-1.7427,-1.7458,-1.7502,-1.7518,-1.7525,-1.7582,-1.7576,-1.757,-1.7552,-1.7594,-1.7614,-1.7623,-1.7521,-1.752,-1.752,-1.752,0,0,-1.7169,-1.7224,-1.7234,-1.7255,-1.7298,-1.7329,-1.7371,-1.7414,-1.7436,-1.747,-1.7506,-1.7563,-1.7558,-1.7583,-1.7594,-1.7622,-1.7669,-1.7613,-1.7614,-1.7623,-1.7736,-1.774,-1.7749,-1.767,-1.7672,-1.7673,-1.7733,0,-1.7221,-1.7294,-1.731,-1.7374,-1.7411,-1.7417,-1.7454,-1.7485,-1.7503,-1.7538,-1.7559,-1.7599,-1.7589,-1.7605,-1.7634,-1.7657,-1.7692,-1.7653,-1.7705,-1.7707,-1.7695,-1.7759,-1.7763,-1.7818,-1.7741,-1.7742,-1.7743,0,-1.7291,-1.7326,-1.7393,-1.7432,-1.7449,-1.7481,-1.7523,-1.7556,-1.7592,-1.7603,-1.7633,-1.7641,-1.7686,-1.7667,-1.7731,-1.7704,-1.7727,-1.7742,-1.7744,-1.7749,-1.7727,-1.7766,-1.7835,-1.7844,-1.7755,-1.7754,-1.7753,0,-1.7321,-1.7385,-1.7434,-1.7453,-1.7499,-1.7522,-1.7543,-1.7578,-1.7603,-1.764,-1.7657,-1.7699,-1.7722,-1.7755,-1.7774,-1.7758,-1.7837,-1.7819,-1.7849,-1.7849,-1.7865,-1.7863,-1.7939,-1.788,-1.7879,-1.7879,-1.7879,0,-1.7377,-1.7419,-1.7449,-1.7479,-1.7526,-1.7544,-1.7591,-1.7612,-1.7643,-1.7679,-1.7687,-1.772,-1.7745,-1.7782,-1.7798,-1.7849,-1.786,-1.7871,-1.7875,-1.787,-1.7869,-1.7885,-1.7882,-1.7882,-1.7881,-1.7881,-1.788,0,-1.7419,-1.7441,-1.7495,-1.7535,-1.7546,-1.7579,-1.7614,-1.7644,-1.7664,-1.7709,-1.772,-1.7751,-1.7795,-1.7819,-1.7874,-1.7885,-1.7943,-1.7945,-1.793,-1.7932,-1.7961,-1.7958,-1.8049,-1.8062,-1.7994,-1.7995,-1.7995,0,-1.7453,-1.7485,-1.7529,-1.7553,-1.7574,-1.7612,-1.7638,-1.7658,-1.7685,-1.773,-1.7755,-1.78,-1.7837,-1.7908,-1.7936,-1.798,-1.7982,-1.8011,-1.7989,-1.7984,-1.7983,-1.7981,-1.7985,-1.8015,-1.8016,-1.8016,-1.8017,0,-1.7511,-1.7521,-1.7558,-1.7599,-1.7629,-1.7663,-1.7696,-1.7716,-1.7742,-1.7772,-1.7817,-1.7846,-1.7903,-1.7948,-1.7994,-1.8016,-1.8022,-1.8024,-1.8033,-1.8028,-1.8019,-1.8025,-1.7941,-1.8021,-1.8021,-1.802,-1.802,-1.802,-1.7551,-1.758,-1.7615,-1.7656,-1.7684,-1.7715,-1.7746,-1.7769,-1.7807,-1.7854,-1.7865,-1.7913,-1.795,-1.8012,-1.8036,-1.8075,-1.807,-1.8083,-1.8086,-1.8089,-1.8091,-1.8013,-1.8084,-1.8084,-1.8084,-1.8084,-1.8084,0,-1.761,-1.7633,-1.7671,-1.7717,-1.775,-1.7751,-1.7789,-1.7816,-1.7859,-1.7893,-1.7929,-1.7982,-1.8026,-1.8058,-1.8104,-1.8129,-1.8133,-1.814,-1.8138,-1.8144,-1.8093,-1.8081,-1.8137,-1.8137,-1.8137,-1.8137,-1.8137,-1.8137,-1.7645,-1.7694,-1.7708,-1.7772,-1.7796,-1.7843,-1.7864,-1.7894,-1.7921,-1.798,-1.8016,-1.8037,-1.8071,-1.8119,-1.816,-1.8169,-1.8185,-1.8193,-1.8201,-1.8153,-1.8147,-1.8142,-1.813,-1.8196,-1.8196,-1.8249,-1.825,-1.825]},{"header":{"parameterUnit":"m.s-1","parameterCategory":1,"la1":30.2991,"la2":30.254,"lo1":-89.0895,"lo2":-89.0444,"dy":0.0017,"dx":0.0017,"nx":28,"ny":28,"refTime":"2024-05-20T21:00:00:Z","depth":0,"parameterNumber":3,"parameterNumberName":"V-component_of_WINDS"},"data":[0,0,0,0,0,0,0,0,0,0,0,0,0,0,0,0,0,0,0,0,0,0,0,0,0,0,0,0,0,0,0,0,0,0,0,0,0,0,0,0,0,0,0,0,0,0,0,0,0,0,0,0,0,0,0,0,0,0,2.8469,2.847,0,2.8542,2.8542,2.8543,2.8518,2.8516,2.8515,2.8513,2.8586,2.8589,2.8592,0,0,0,0,0,0,0,0,0,0,0,0,0,2.8306,2.8309,2.8469,2.847,2.8471,2.8541,2.8542,2.8543,2.8518,2.8516,2.8514,2.8512,2.8584,2.8588,2.8593,0,0,0,0,0,0,0,0,0,0,0,0,0,2.8378,2.831,2.8469,2.8467,2.8467,2.8541,2.8542,2.8544,2.8519,2.8516,2.8514,2.8512,2.8583,2.8588,2.8593,2.8673,0,0,2.8609,2.8611,0,0,0,0,0,0,0,0,2.8374,2.8384,2.8466,2.8467,2.8468,2.8518,2.8512,2.8587,2.8519,2.8499,2.8513,2.851,2.8565,2.8571,2.859,2.8676,2.8679,2.8609,2.8612,2.8615,2.8616,0,0,0,0,0,0,0,2.8369,2.838,2.8497,2.8467,2.8468,2.8461,2.8469,2.8526,2.8544,2.8501,2.8499,2.8508,2.8565,2.8585,2.8592,2.868,2.8609,2.8614,2.8617,2.8619,2.8836,2.8839,0,0,0,0,0,0,2.8364,2.8376,2.8495,2.85,2.8414,2.8466,2.8475,2.8504,2.8544,2.8548,2.851,2.8507,2.8578,2.8586,2.8594,2.8691,2.8615,2.8619,2.8622,2.8834,2.8837,2.884,0,0,0,0,0,0,2.836,2.8374,2.8492,2.8438,2.8452,2.8472,2.8505,2.8507,2.8528,2.8551,2.8554,2.8528,2.8576,2.8587,2.8654,2.8693,2.8622,2.8626,2.883,2.8835,2.8838,2.8885,0,0,0,0,0,0,2.8356,2.8373,2.8404,2.8439,2.8455,2.8551,2.8508,2.851,2.8537,2.8533,2.8568,2.8572,2.8575,2.8646,2.8659,2.8699,2.863,2.8827,2.8832,2.8837,2.888,2.889,2.8899,0,0,0,0,0,2.835,2.8414,2.8406,2.842,2.8494,2.8554,2.8563,2.8566,2.854,2.8571,2.8586,2.8571,2.8687,2.8653,2.8667,2.871,2.8824,2.8831,2.8837,2.8876,2.8888,2.8899,0,0,0,0,0,0,2.8383,2.8418,2.841,2.8487,2.8518,2.8549,2.8589,2.8579,2.8617,2.8612,2.8614,2.8622,2.8691,2.8706,2.8669,2.8789,2.8752,2.8761,2.8777,2.8788,2.8798,2.8793,2.8635,0,0,0,0,0,2.8399,2.8445,2.8473,2.8538,2.8554,2.8569,2.8595,2.8595,2.8626,2.8639,2.8659,2.8689,2.8733,2.8761,2.8802,2.8882,2.8889,2.8918,2.8927,2.8935,2.8943,2.8987,2.9,2.886,2.886,2.886,0,0,2.8433,2.8458,2.8487,2.8546,2.8569,2.8617,2.858,2.8631,2.8666,2.8646,2.8711,2.8727,2.8761,2.8835,2.8868,2.885,2.8983,2.8942,2.8948,2.8952,2.8994,2.9008,2.902,2.8864,2.8863,2.8862,0,0,2.852,2.8543,2.8601,2.8625,2.8662,2.8671,2.8685,2.8719,2.8729,2.8794,2.878,2.8821,2.8896,2.8921,2.8944,2.904,2.9028,2.9053,2.9103,2.9146,2.9157,2.9166,2.9202,2.9214,2.9061,2.9061,2.9061,0,2.8558,2.8629,2.8631,2.8684,2.8711,2.8695,2.8754,2.8777,2.8825,2.8843,2.8822,2.8916,2.8938,2.9018,2.9042,2.906,2.9076,2.905,2.9155,2.9165,2.9174,2.9208,2.9221,2.9064,2.9064,2.9064,2.9063,0,2.8674,2.8723,2.8765,2.8813,2.8844,2.8899,2.8909,2.894,2.8937,2.8949,2.9016,2.9041,2.9088,2.9107,2.9104,2.9187,2.9174,2.9154,2.9117,2.919,2.9222,2.9235,2.9068,2.9067,2.9067,2.9066,0,0,2.8784,2.8833,2.8848,2.887,2.8909,2.8947,2.9002,2.9048,2.9075,2.9108,2.9154,2.9218,2.92,2.9225,2.9225,2.9263,2.9339,2.9238,2.9239,2.9257,2.9433,2.9448,2.9463,2.933,2.9333,2.9335,2.943,0,2.8874,2.8971,2.8975,2.9063,2.9109,2.9095,2.9143,2.9172,2.9184,2.9224,2.9237,2.9283,2.9255,2.927,2.9307,2.9322,2.9374,2.9315,2.9373,2.9375,2.9367,2.948,2.9497,2.9586,2.9442,2.9444,2.9446,0,2.8993,2.9032,2.9125,2.9158,2.9178,2.922,2.9264,2.9302,2.9335,2.9341,2.937,2.9364,2.942,2.938,2.9456,2.9416,2.944,2.9451,2.9454,2.9461,2.9416,2.949,2.9614,2.9628,2.9465,2.9464,2.9462,0,2.9066,2.914,2.9206,2.9225,2.9265,2.9296,2.9314,2.9344,2.9372,2.9409,2.9427,2.947,2.9494,2.9527,2.9533,2.9503,2.961,2.957,2.9617,2.9617,2.9641,2.964,2.9772,2.9655,2.9655,2.9654,2.9654,0,2.9168,2.9225,2.9239,2.928,2.9344,2.9347,2.941,2.9426,2.9453,2.9496,2.9486,2.9527,2.9532,2.9573,2.9578,2.9642,2.9652,2.9659,2.9659,2.966,2.966,2.9677,2.9671,2.9658,2.9657,2.9656,2.9656,0,2.926,2.9272,2.9342,2.9375,2.9384,2.9431,2.9458,2.9497,2.9507,2.9562,2.9575,2.9592,2.9641,2.965,2.9707,2.971,2.9786,2.978,2.9776,2.9775,2.9822,2.9818,2.997,2.9991,2.986,2.9861,2.9862,0,2.9325,2.9369,2.9407,2.9435,2.9455,2.9501,2.953,2.9534,2.9564,2.9605,2.9639,2.9687,2.9725,2.9804,2.9821,2.9864,2.986,2.991,2.9867,2.9867,2.9862,2.986,2.9865,2.9919,2.9921,2.9922,2.9923,0,2.9439,2.9443,2.9485,2.9529,2.9564,2.9599,2.9632,2.9656,2.9665,2.9699,2.9749,2.9779,2.9838,2.9886,2.9929,2.9947,2.9937,2.9936,2.995,2.9952,2.9948,2.9952,2.98,2.9933,2.9932,2.9931,2.9931,2.993,2.9521,2.956,2.9593,2.964,2.9665,2.9697,2.9735,2.9751,2.9793,2.9842,2.9842,2.9897,2.9928,2.9986,3.0007,3.005,3.0034,3.0053,3.0058,3.0063,3.0068,2.994,3.0058,3.0057,3.0057,3.0057,3.0057,0,2.9636,2.9656,2.97,2.9747,2.9784,2.9771,2.9807,2.9839,2.9888,2.9918,2.9957,3.0015,3.0061,3.0082,3.0128,3.0158,3.0155,3.017,3.0168,3.0173,3.0079,3.0064,3.0172,3.0172,3.0172,3.0172,3.0172,3.0172,2.97,2.9766,2.9773,2.9852,2.9871,2.9926,2.9948,2.9977,3.0001,3.0067,3.0105,3.0119,3.0146,3.0193,3.0235,3.024,3.0258,3.0276,3.0279,3.0191,3.0179,3.0168,3.0154,3.0279,3.0279,3.0369,3.037,3.037]}]]